[[{"header":{"parameterUnit":"m.s-1","parameterCategory":1,"la1":30.2991,"la2":30.254,"lo1":-89.0895,"lo2":-89.0444,"dy":0.0017,"dx":0.0017,"nx":28,"ny":28,"refTime":"2026-02-01T03:00:00:Z","depth":0,"parameterNumber":2,"parameterNumberName":"U-component_of_WINDS"},"data":[0,0,0,0,0,0,0,0,0,0,0,0,0,0,0,0,0,0,0,0,0,0,0,0,0,0,0,0,0,0,0,0,0,0,0,0,0,0,0,0,0,0,0,0,0,0,0,0,0,0,0,0,0,0,0,0,0,0,2.0581,2.0583,0,2.0779,2.0781,2.0784,2.0784,2.0781,2.0779,2.0776,2.0983,2.0991,2.0999,0,0,0,0,0,0,0,0,0,0,0,0,0,2.0206,2.0213,2.0581,2.0583,2.0586,2.0779,2.0782,2.0784,2.0785,2.0781,2.0778,2.0775,2.0981,2.099,2.0999,0,0,0,0,0,0,0,0,0,0,0,0,0,2.0383,2.0215,2.058,2.0609,2.0614,2.0778,2.0782,2.0785,2.0785,2.0781,2.0777,2.0774,2.0977,2.0989,2.1001,2.1151,0,0,2.1037,2.1042,0,0,0,0,0,0,0,0,2.0373,2.0397,2.0602,2.0607,2.0613,2.0753,2.0725,2.0908,2.0786,2.072,2.0776,2.0772,2.091,2.0927,2.0973,2.1161,2.1169,2.1038,2.1045,2.105,2.1053,0,0,0,0,0,0,0,2.0361,2.0388,2.0659,2.0605,2.0612,2.0613,2.0634,2.076,2.0834,2.0726,2.0726,2.0749,2.0912,2.0961,2.0978,2.1172,2.1038,2.1048,2.1055,2.106,2.1494,2.1498,0,0,0,0,0,0,2.0342,2.0378,2.0653,2.0665,2.0481,2.0623,2.0646,2.0712,2.0833,2.0848,2.0752,2.0749,2.0943,2.0964,2.0985,2.1169,2.105,2.1061,2.1068,2.149,2.1495,2.15,0,0,0,0,0,0,2.0334,2.0367,2.0645,2.0522,2.0557,2.0634,2.0707,2.0718,2.0767,2.0853,2.0867,2.0789,2.0941,2.0968,2.111,2.1176,2.1066,2.1077,2.1485,2.1492,2.1498,2.1539,0,0,0,0,0,0,2.0323,2.0364,2.0421,2.0523,2.0564,2.0765,2.0711,2.0724,2.0787,2.0784,2.0891,2.0905,2.094,2.1092,2.1121,2.1191,2.1087,2.1479,2.1488,2.1496,2.1532,2.1546,2.1558,0,0,0,0,0,2.031,2.0425,2.0424,2.0457,2.0637,2.0769,2.0793,2.0829,2.0792,2.0851,2.0906,2.0902,2.1164,2.1106,2.1139,2.1213,2.1475,2.1485,2.1495,2.1526,2.1543,2.1558,0,0,0,0,0,0,2.033,2.0439,2.0439,2.059,2.067,2.0769,2.0844,2.0846,2.094,2.0933,2.0975,2.1,2.1141,2.1191,2.1125,2.1366,2.1315,2.1332,2.1327,2.1345,2.1357,2.1343,2.1096,0,0,0,0,0,2.0352,2.0449,2.054,2.0665,2.0705,2.0767,2.0827,2.0848,2.0933,2.0967,2.1033,2.1117,2.1218,2.1284,2.1382,2.1539,2.1563,2.1606,2.1619,2.163,2.1644,2.1732,2.1752,2.1533,2.1533,2.1532,0,0,2.0398,2.047,2.0529,2.0671,2.0735,2.0836,2.0796,2.0905,2.098,2.0984,2.1121,2.1172,2.1269,2.1418,2.1488,2.1465,2.171,2.1642,2.165,2.1659,2.1744,2.1765,2.1783,2.154,2.1538,2.1537,0,0,2.0535,2.0598,2.071,2.0775,2.0873,2.0914,2.094,2.1039,2.1073,2.1211,2.1216,2.1307,2.1481,2.1549,2.1607,2.1769,2.1769,2.18,2.1869,2.1954,2.1971,2.1986,2.2045,2.2065,2.1814,2.1814,2.1814,0,2.058,2.0732,2.0767,2.0876,2.0938,2.0945,2.1059,2.1121,2.1246,2.129,2.1262,2.148,2.1545,2.1711,2.1751,2.1797,2.183,2.1788,2.1965,2.1981,2.1996,2.2053,2.2075,2.1817,2.1817,2.1817,2.1816,0,2.0783,2.0888,2.0967,2.1086,2.1158,2.1268,2.1321,2.1389,2.1404,2.1449,2.159,2.1668,2.1782,2.1823,2.1839,2.1992,2.1975,2.1956,2.1906,2.202,2.2074,2.2095,2.1822,2.1821,2.182,2.1819,0,0,2.0938,2.1075,2.1104,2.1158,2.1267,2.1349,2.1461,2.1571,2.1629,2.1715,2.181,2.1957,2.194,2.2005,2.2029,2.2104,2.2228,2.2076,2.2079,2.2102,2.2402,2.2416,2.244,2.2228,2.2232,2.2236,2.2394,0,2.1087,2.1283,2.1318,2.1491,2.1589,2.1596,2.1694,2.1771,2.1816,2.1906,2.1955,2.2059,2.2028,2.2068,2.2141,2.2197,2.2289,2.2186,2.2318,2.2322,2.2294,2.2468,2.2484,2.2629,2.2415,2.2419,2.2421,0,2.1286,2.1376,2.1558,2.1653,2.1696,2.1782,2.1887,2.1972,2.2061,2.2088,2.2161,2.2176,2.2294,2.2238,2.2401,2.233,2.2386,2.2422,2.2428,2.2443,2.2379,2.2488,2.2677,2.2699,2.2455,2.2452,2.245,0,2.1381,2.1548,2.1679,2.1725,2.184,2.19,2.1951,2.2036,2.21,2.2192,2.2234,2.2338,2.2396,2.2477,2.252,2.2476,2.268,2.2628,2.2707,2.2706,2.275,2.2747,2.2952,2.2785,2.2785,2.2785,2.2784,0,2.1544,2.1655,2.1723,2.1804,2.1929,2.1968,2.2091,2.2141,2.2216,2.2307,2.2321,2.2406,2.2458,2.2551,2.2586,2.2716,2.2742,2.2768,2.2776,2.2767,2.2764,2.2805,2.2797,2.279,2.2789,2.2788,2.2787,0,2.1672,2.1722,2.1865,2.1961,2.1988,2.2076,2.2159,2.2238,2.2282,2.2397,2.2426,2.2495,2.2606,2.2657,2.2794,2.2818,2.2966,2.2966,2.2935,2.2939,2.3015,2.3007,2.3253,2.3288,2.3098,2.31,2.3101,0,2.1773,2.1858,2.1963,2.2025,2.2077,2.2175,2.2241,2.2283,2.2351,2.2458,2.2525,2.2635,2.2726,2.2902,2.2966,2.3071,2.3075,2.3154,2.3091,2.3079,2.3077,2.3072,2.3081,2.3165,2.3167,2.3169,2.317,0,2.1946,2.1967,2.206,2.2162,2.2239,2.2322,2.2404,2.2453,2.2509,2.2584,2.2697,2.2767,2.2906,2.3017,2.3126,2.3179,2.3185,2.3189,2.3213,2.3206,2.3184,2.3198,2.2967,2.3184,2.3182,2.3181,2.318,2.318,2.2065,2.2141,2.2227,2.233,2.2396,2.2471,2.255,2.2604,2.2698,2.2814,2.2833,2.2953,2.304,2.3187,2.3244,2.334,2.3321,2.3356,2.3365,2.3373,2.3378,2.3168,2.336,2.3359,2.3359,2.3359,2.3359,0,2.224,2.2295,2.239,2.2502,2.2584,2.258,2.267,2.2739,2.2844,2.2924,2.3013,2.3143,2.3249,2.3321,2.3429,2.3492,2.3497,2.3519,2.3516,2.3528,2.3387,2.3356,2.3513,2.3513,2.3513,2.3513,2.3513,2.3513,2.234,2.247,2.25,2.2663,2.2718,2.2834,2.2886,2.2956,2.302,2.3164,2.3252,2.3298,2.3375,2.3489,2.3587,2.3606,2.3646,2.3668,2.3686,2.3554,2.3538,2.3522,2.3493,2.3676,2.3677,2.3819,2.382,2.3821]},{"header":{"parameterUnit":"m.s-1","parameterCategory":1,"la1":30.2991,"la2":30.254,"lo1":-89.0895,"lo2":-89.0444,"dy":0.0017,"dx":0.0017,"nx":28,"ny":28,"refTime":"2026-02-01T03:00:00:Z","depth":0,"parameterNumber":3,"parameterNumberName":"V-component_of_WINDS"},"data":[0,0,0,0,0,0,0,0,0,0,0,0,0,0,0,0,0,0,0,0,0,0,0,0,0,0,0,0,0,0,0,0,0,0,0,0,0,0,0,0,0,0,0,0,0,0,0,0,0,0,0,0,0,0,0,0,0,0,4.0536,4.0537,0,4.0639,4.064,4.0641,4.0578,4.0575,4.0572,4.0569,4.067,4.0676,4.0681,0,0,0,0,0,0,0,0,0,0,0,0,0,4.0281,4.0286,4.0536,4.0538,4.0539,4.0639,4.064,4.0642,4.0578,4.0575,4.0571,4.0568,4.0669,4.0675,4.0682,0,0,0,0,0,0,0,0,0,0,0,0,0,4.0389,4.0288,4.0536,4.0519,4.0519,4.0639,4.064,4.0642,4.0579,4.0575,4.057,4.0566,4.0666,4.0674,4.0683,4.0823,0,0,4.0708,4.0711,0,0,0,0,0,0,0,0,4.0383,4.0398,4.052,4.0521,4.052,4.0591,4.0587,4.0703,4.058,4.0556,4.0569,4.0564,4.0647,4.0657,4.0686,4.0828,4.0832,4.0708,4.0713,4.0717,4.0719,0,0,0,0,0,0,0,4.0375,4.0393,4.0577,4.0522,4.0522,4.0505,4.0516,4.0609,4.0626,4.0558,4.0553,4.0567,4.0646,4.0678,4.0688,4.0834,4.0708,4.0716,4.0721,4.0724,4.1096,4.1101,0,0,0,0,0,0,4.037,4.0387,4.0573,4.058,4.0439,4.0514,4.0525,4.0573,4.0624,4.0628,4.057,4.0563,4.0666,4.0678,4.0691,4.0859,4.0717,4.0725,4.0729,4.1091,4.1097,4.1102,0,0,0,0,0,0,4.0364,4.0387,4.0569,4.0483,4.0505,4.0523,4.0577,4.0577,4.0609,4.0634,4.0636,4.06,4.0663,4.068,4.0791,4.0862,4.0728,4.0736,4.1085,4.1093,4.11,4.1197,0,0,0,0,0,0,4.0357,4.0385,4.044,4.0484,4.0509,4.0669,4.0581,4.0583,4.0624,4.0615,4.0662,4.0666,4.0661,4.0779,4.0799,4.0871,4.0742,4.1079,4.1088,4.1097,4.1187,4.1206,4.1223,0,0,0,0,0,4.0348,4.0463,4.0443,4.0466,4.0578,4.0673,4.0688,4.0681,4.063,4.0684,4.07,4.0664,4.0851,4.0791,4.0813,4.0888,4.1074,4.1086,4.1097,4.1179,4.1203,4.1222,0,0,0,0,0,0,4.0425,4.0468,4.0447,4.0579,4.0623,4.0663,4.0731,4.0706,4.0764,4.0754,4.0742,4.0753,4.087,4.089,4.0823,4.1027,4.0954,4.097,4.101,4.1032,4.105,4.1042,4.0749,0,0,0,0,0,4.0457,4.0532,4.0565,4.0678,4.0702,4.0713,4.0754,4.0745,4.079,4.0808,4.0832,4.0875,4.0943,4.0989,4.1053,4.119,4.1198,4.1252,4.127,4.1284,4.1298,4.1371,4.1396,4.1139,4.1139,4.1138,0,0,4.0525,4.0557,4.0605,4.0695,4.0728,4.0804,4.0729,4.0813,4.0869,4.082,4.0927,4.0946,4.0994,4.1119,4.1175,4.1139,4.1371,4.1298,4.131,4.1316,4.1385,4.141,4.1431,4.1146,4.1145,4.1144,0,0,4.0687,4.0719,4.0817,4.0852,4.0904,4.091,4.0934,4.0977,4.0989,4.1096,4.106,4.1126,4.1244,4.128,4.1313,4.1489,4.1457,4.151,4.1603,4.1674,4.1695,4.1713,4.1775,4.1797,4.1523,4.1524,4.1524,0,4.0764,4.0879,4.0871,4.0958,4.0998,4.0958,4.1056,4.109,4.1159,4.1187,4.1146,4.1294,4.1323,4.1455,4.1498,4.1527,4.1552,4.1504,4.1693,4.1711,4.1727,4.1786,4.181,4.153,4.1529,4.1528,4.1528,0,4.0971,4.1052,4.1124,4.1194,4.1242,4.1334,4.1338,4.1388,4.1374,4.1385,4.1494,4.1528,4.1598,4.1629,4.1616,4.1759,4.1736,4.1694,4.1621,4.1758,4.1813,4.1836,4.1538,4.1536,4.1534,4.1533,0,0,4.1185,4.1248,4.1275,4.1306,4.136,4.1421,4.1511,4.1581,4.1623,4.1672,4.1747,4.1848,4.181,4.1848,4.1838,4.1901,4.2037,4.1852,4.1853,4.1885,4.2197,4.2228,4.2254,4.2017,4.2021,4.2025,4.2193,0,4.135,4.1509,4.1504,4.1651,4.1725,4.1687,4.1765,4.1806,4.1818,4.1881,4.1893,4.1965,4.191,4.1932,4.1993,4.2008,4.21,4.1996,4.2085,4.2089,4.2075,4.2283,4.2317,4.2474,4.2214,4.2218,4.2221,0,4.1565,4.1622,4.1778,4.182,4.1851,4.1922,4.1985,4.2046,4.2091,4.2095,4.2138,4.2118,4.2208,4.2132,4.2255,4.2185,4.2221,4.2233,4.2239,4.2248,4.2163,4.2297,4.2524,4.2547,4.2255,4.2252,4.225,0,4.1705,4.1821,4.1929,4.1957,4.2009,4.2059,4.2083,4.2124,4.2166,4.2221,4.2248,4.2312,4.2347,4.2396,4.2394,4.234,4.2519,4.2443,4.2524,4.2524,4.2564,4.2561,4.2799,4.2587,4.2586,4.2586,4.2585,0,4.1891,4.1987,4.1993,4.2059,4.2166,4.2158,4.2263,4.2282,4.2318,4.2386,4.2357,4.2421,4.2414,4.2479,4.2477,4.2579,4.2595,4.26,4.2599,4.2603,4.2603,4.2627,4.2616,4.2592,4.2591,4.2589,4.2588,0,4.2066,4.2074,4.2189,4.2229,4.2241,4.2318,4.2352,4.2414,4.2423,4.251,4.253,4.2544,4.2618,4.2621,4.2706,4.2705,4.2829,4.2815,4.2815,4.2812,4.2893,4.2885,4.3155,4.319,4.2954,4.2957,4.2959,0,4.2184,4.2257,4.2306,4.235,4.2378,4.2449,4.2492,4.2487,4.2533,4.2589,4.2645,4.2716,4.2774,4.2894,4.2911,4.2976,4.2963,4.3053,4.2972,4.2975,4.2964,4.296,4.2967,4.3069,4.3071,4.3074,4.3075,0,4.2393,4.2393,4.2457,4.2523,4.2576,4.2627,4.2675,4.2712,4.2712,4.2765,4.2841,4.2886,4.2973,4.3044,4.3107,4.313,4.3103,4.31,4.3123,4.3128,4.3125,4.3128,4.2858,4.3094,4.3092,4.3091,4.309,4.3089,4.2543,4.2607,4.2651,4.2723,4.2759,4.2804,4.2864,4.2881,4.2946,4.3017,4.3009,4.3094,4.3136,4.3218,4.3246,4.3311,4.3279,4.3312,4.332,4.3328,4.3337,4.3114,4.3322,4.3321,4.3321,4.332,4.332,0,4.275,4.2777,4.2844,4.2912,4.2969,4.2939,4.299,4.3039,4.3114,4.3156,4.3213,4.3301,4.337,4.3392,4.3459,4.3506,4.3496,4.3524,4.3521,4.3526,4.3361,4.3335,4.3532,4.3532,4.3532,4.3532,4.3532,4.3532,4.2865,4.2971,4.2977,4.3099,4.3125,4.3209,4.324,4.3281,4.3315,4.3414,4.3472,4.3486,4.352,4.3589,4.365,4.3655,4.3681,4.3715,4.3714,4.3559,4.3538,4.3518,4.3493,4.372,4.372,4.3874,4.3875,4.3877]}]]